Fairfield, NJ

8:57 PM EST on December 04, 2016 (GMT -0500)
Essex County

Weather History for KCDW - July, 2013

Change the Weather History Date:

Thursday, July 4, 2013

  Actual Average Record
Temperature  
Mean Temperature 82 °F -  
Max Temperature 89 °F 83 °F 103 °F (1966)
Min Temperature 75 °F 61 °F 48 °F (1982)
Cooling Degree Days 16    
Growing Degree Days 32 (Base 50)    
Moisture  
Dew Point 71 °F    
Average Humidity 74    
Maximum Humidity 94    
Minimum Humidity 55    
Precipitation  
Precipitation 0.00 in - - ()
Sea Level Pressure  
Sea Level Pressure 30.23 in    
Wind  
Wind Speed 3 mph (SW)    
Max Wind Speed 12 mph    
Max Gust Speed 16 mph    
Visibility 10 miles    
Events      
Averages and records for this station are not official NWS values.
T = Trace of Precipitation, MM = Missing Value Source: NWS Daily Summary

Daily Weather History Graph

Daily Weather History Graph

Search for Another Location

Airport or City:

Trip Planner

Search our weather history database for the weather conditions in past years. The results will help you decide how hot, cold, wet, or windy it might be!

Date:

Astronomy

Jul. 04, 2013 Rise Set
Actual Time 5:30 AM EDT 8:32 PM EDT
Civil Twilight 4:57 AM EDT 9:05 PM EDT
Nautical Twilight 4:15 AM EDT 9:47 PM EDT
Astronomical Twilight 3:25 AM EDT 10:36 PM EDT
Moon 2:46 AM EDT (7/4) 5:33 PM EDT (7/4)
Length of Visible Light 16h 07m
Length of Day
15h 01m
Waning Crescent, 11% of the Moon is Illuminated
Jul 4
Waning Crescent
Jul 8
New
Jul 15
First Quarter
Jul 22
Full
Jul 29
Last Quarter

Hourly Weather History & Observations

Time (EDT) Temp. Heat Index Dew Point Humidity Pressure Visibility Wind Dir Wind Speed Gust Speed Precip Events Conditions
12:53 AM 75.9 °F - 73.0 °F 91% 30.24 in 9.0 mi Calm Calm - N/A   Clear
1:53 AM 75.0 °F - 73.0 °F 94% 30.24 in 8.0 mi Calm Calm - N/A   Clear
2:53 AM 75.0 °F - 73.0 °F 94% 30.24 in 9.0 mi Calm Calm - N/A   Clear
3:53 AM 75.0 °F - 73.0 °F 94% 30.23 in 9.0 mi Calm Calm - N/A   Partly Cloudy
4:53 AM 75.0 °F - 73.0 °F 94% 30.24 in 10.0 mi Variable 4.6 mph - N/A   Clear
5:53 AM 75.0 °F - 72.0 °F 90% 30.25 in 9.0 mi Variable 3.5 mph - N/A   Clear
6:53 AM 75.9 °F - 72.0 °F 87% 30.26 in 10.0 mi SW 5.8 mph - N/A   Partly Cloudy
7:31 AM 75.2 °F - 71.6 °F 89% 30.25 in 10.0 mi Variable 4.6 mph - N/A   Mostly Cloudy
7:53 AM 77.0 °F - 72.0 °F 84% 30.27 in 10.0 mi Variable 3.5 mph - N/A   Overcast
8:20 AM 78.8 °F - 71.6 °F 78% 30.26 in 10.0 mi Calm Calm - N/A   Scattered Clouds
8:37 AM 78.8 °F - 71.6 °F 78% 30.26 in 10.0 mi Variable 4.6 mph - N/A   Mostly Cloudy
8:53 AM 78.1 °F - 72.0 °F 81% 30.27 in 10.0 mi Variable 5.8 mph - N/A   Overcast
9:53 AM 81.0 °F 84.9 °F 71.1 °F 72% 30.27 in 10.0 mi West 8.1 mph - N/A   Mostly Cloudy
10:34 AM 80.6 °F 83.9 °F 69.8 °F 70% 30.25 in 10.0 mi Variable 6.9 mph - N/A   Overcast
10:53 AM 82.0 °F 85.9 °F 70.0 °F 67% 30.27 in 10.0 mi Variable 6.9 mph - N/A   Mostly Cloudy
11:53 AM 84.0 °F 88.4 °F 70.0 °F 63% 30.26 in 10.0 mi Variable 4.6 mph - N/A   Mostly Cloudy
12:53 PM 86.0 °F 91.5 °F 71.1 °F 61% 30.24 in 10.0 mi WSW 8.1 mph - N/A   Partly Cloudy
1:53 PM 87.1 °F 92.8 °F 71.1 °F 59% 30.22 in 10.0 mi SSW 8.1 mph - N/A   Scattered Clouds
2:53 PM 88.0 °F 93.8 °F 71.1 °F 57% 30.21 in 10.0 mi SW 11.5 mph 16.1 mph N/A   Partly Cloudy
3:53 PM 88.0 °F 92.9 °F 70.0 °F 55% 30.19 in 10.0 mi SSW 8.1 mph - N/A   Partly Cloudy
4:53 PM 88.0 °F 93.8 °F 71.1 °F 57% 30.18 in 10.0 mi SSW 6.9 mph - N/A   Scattered Clouds
5:53 PM 87.1 °F 92.8 °F 71.1 °F 59% 30.17 in 10.0 mi Variable 5.8 mph - N/A   Clear
6:53 PM 87.1 °F 92.0 °F 70.0 °F 57% 30.17 in 10.0 mi Variable 6.9 mph - N/A   Partly Cloudy
7:53 PM 84.9 °F 89.4 °F 70.0 °F 61% 30.18 in 10.0 mi Variable 5.8 mph - N/A   Clear
8:53 PM 82.9 °F 87.0 °F 70.0 °F 65% 30.18 in 10.0 mi Variable 3.5 mph - N/A   Clear
9:53 PM 82.0 °F 85.9 °F 70.0 °F 67% 30.20 in 10.0 mi SW 4.6 mph - N/A   Clear
10:53 PM 81.0 °F 84.1 °F 69.1 °F 67% 30.21 in 10.0 mi Calm Calm - N/A   Clear
11:53 PM 79.0 °F - 70.0 °F 74% 30.21 in 10.0 mi SW 3.5 mph - N/A   Clear